Torna al catalogo

INTELSAT 604

AttivoComunicazioniGEO
NORAD 20667·PAYLOAD· XX

Lanciato Jun 23, 1990 da Cape Canaveral Space Force Station

Loading…

TLE

AggiornatoSource: Space-Track

Epoca: Sep 13, 2026, 20:59 UTC

1 20667U 90056A   26256.87430919 -.00000008  00000-0  00000+0 0  9991
2 20667  14.6787   9.2914 0005153 299.3809  59.2442  0.98432460 47345

Traccia INTELSAT 604 in tempo reale con AllMySat

Download on the App Store